Lid_Strength_Index
4 4 4 4 4 4 4 4 4 4 3 2 2 2 1 1 1 1 2 2 2 2 3 3 3 3 5 9 10 2 -1 -2 0 2 5 5 5 6 7 7 7 8 8 7 6 6 6
4 4 4 4 4 4 4 4 4 4 4 3 3 3 2 2 2 2 2 3 3 3 3 3 3 3 7 12 5 1 1 3 3 4 5 5 5 4 6 6 8 7 7 6 6 6 6
4 4 4 4 4 4 5 4 4 4 4 3 3 3 3 2 2 2 3 3 3 3 4 3 3 5 8 10 4 4 3 3 3 3 5 4 3 4 5 6 5 6 8 7 7 6 7
5 4 4 4 4 4 4 4 4 4 4 4 3 3 3 3 3 3 3 4 4 4 3 3 4 6 9 6 5 4 3 3 3 3 4 3 3 4 5 5 6 8 8 10 7 7 7
4 4 4 3 4 4 4 4 4 4 4 4 4 4 4 4 3 3 4 4 4 4 4 4 6 7 10 5 7 4 3 4 4 4 4 3 4 5 5 7 9 9 11 11 9 7 7
4 4 3 3 3 3 3 4 4 4 4 4 4 4 4 4 3 4 5 5 4 5 5 5 6 10 9 9 6 4 3 3 4 5 5 5 6 7 7 8 12 11 11 10 10 8 8
3 4 4 3 3 2 2 3 3 4 4 4 4 4 4 4 3 4 5 6 9 9 7 9 9 10 10 7 4 5 4 4 4 5 7 6 8 10 9 8 8 9 10 10 9 8 9
3 3 3 3 3 3 2 2 2 3 4 4 4 4 4 3 3 4 5 8 8 7 10 7 8 8 7 6 7 5 4 6 5 8 7 8 10 8 8 8 8 9 10 10 9 8 8
3 3 3 3 3 3 2 2 2 2 3 3 4 4 4 4 4 4 6 7 5 5 10 9 8 8 7 7 7 6 5 6 7 8 8 10 8 7 8 9 10 9 10 10 10 9 9
3 3 3 2 2 2 2 2 1 2 2 3 3 4 4 3 5 5 7 4 4 5 13 12 10 8 6 6 8 5 5 5 7 8 8 9 7 8 9 9 9 11 8 9 10 10 12
2 2 2 2 2 2 2 2 1 1 1 2 2 3 4 3 6 7 5 4 4 6 19 11 9 5 6 8 8 7 5 5 8 8 8 9 9 9 10 9 8 10 8 9 9 10 11
0 1 1 1 1 2 2 3 1 1 1 2 2 2 3 4 4 5 4 3 4 12 19 13 9 9 9 9 9 8 7 5 6 8 7 8 7 7 8 7 8 7 8 10 10 11 15
1 1 1 1 1 1 1 2 2 2 1 1 2 1 2 2 5 3 2 4 13 17 12 13 11 10 11 11 10 9 9 9 10 12 12 9 9 7 6 9 7 8 10 15 16 16 16
1 1 1 2 1 1 1 1 2 2 2 2 1 1 2 2 0 2 2 9 17 13 13 10 10 11 12 11 11 10 10 10 9 10 11 12 13 9 7 8 10 10 10 15 18 18 15
1 1 1 1 1 2 1 1 1 1 1 1 2 3 3 3 -0 1 6 14 14 12 10 11 11 13 12 11 11 10 11 10 9 8 11 13 12 8 7 7 7 10 12 9 14 14 16
1 1 1 1 1 1 2 2 1 1 0 0 4 5 5 1 -1 3 9 12 11 9 8 9 14 12 13 12 11 11 11 10 10 8 6 9 12 9 8 7 7 9 8 13 13 18 19
1 1 1 1 1 1 1 2 2 1 1 0 4 7 4 1 1 7 12 12 10 8 7 9 11 12 11 12 11 12 11 10 9 9 7 8 9 10 9 10 10 10 11 11 11 13 16
0 -0 -0 -0 0 1 1 1 2 1 1 2 5 10 4 0 9 8 12 11 9 9 7 8 8 10 11 10 11 11 11 9 8 8 9 8 10 13 11 8 8 9 10 10 14 15 14
1 0 -0 -0 -0 1 1 1 2 2 1 4 8 7 2 2 12 11 10 10 9 9 9 9 9 9 8 9 12 10 10 8 8 8 9 8 11 14 12 10 9 10 9 10 11 12 14
1 1 0 -0 -0 -0 0 1 2 2 1 4 7 11 7 5 6 9 10 11 11 8 9 7 9 8 9 10 9 10 10 8 7 7 7 6 10 12 14 12 10 12 11 10 11 14 14
1 1 1 0 0 -0 -0 1 2 2 2 4 7 9 7 11 9 9 9 10 11 11 9 7 9 9 10 12 11 11 8 8 7 7 7 8 12 11 10 10 10 10 11 11 11 11 13
1 1 0 0 0 -0 -0 1 2 2 2 5 8 8 6 8 8 9 9 11 12 11 10 10 10 9 9 11 10 11 9 9 9 8 9 8 11 11 11 11 10 11 10 10 11 11 11
1 0 0 0 0 0 0 1 2 2 2 6 5 5 6 8 9 10 11 11 11 9 9 8 8 9 10 9 7 7 7 7 7 9 10 10 11 12 14 12 12 14 11 11 10 10 9
1 0 0 0 0 0 0 1 1 2 3 4 5 5 8 11 9 10 10 9 10 9 9 8 7 8 6 4 5 6 7 8 8 8 7 10 11 12 15 14 18 10 10 9 10 9 9
1 1 0 0 0 0 0 1 2 2 2 5 4 5 7 10 9 9 8 9 8 7 8 7 7 5 4 5 9 12 12 11 10 9 9 9 12 14 16 15 12 11 10 10 10 10 8
1 1 0 0 1 1 1 1 2 2 2 3 5 4 5 8 9 7 8 8 9 9 9 8 4 4 5 9 11 14 17 14 14 12 10 11 11 12 16 16 18 11 9 9 8 12 8
1 1 0 0 1 1 1 2 2 2 2 4 5 3 4 8 6 6 8 9 7 8 9 8 7 7 5 11 13 14 14 11 15 15 14 13 14 14 16 15 13 10 9 8 13 11 8
1 1 1 1 1 1 2 2 2 2 2 3 5 3 4 6 6 5 5 7 6 7 10 8 8 8 9 12 13 13 14 12 13 11 13 13 14 15 15 15 16 9 10 11 8 8 7
1 1 1 1 2 2 2 3 2 2 2 3 6 3 3 6 6 4 3 3 4 4 6 6 8 8 8 10 11 11 13 13 12 15 11 14 11 13 12 12 8 9 7 7 7 7 7